Dublin, Ireland

11:55 PM IST on May 25, 2017 (GMT +0100)
Dublin International

Weather History for EIDW - April, 2013

Change the Weather History Date:

Tuesday, April 2, 2013

  Actual Average Record
Temperature  
Mean Temperature 38 °F -  
Max Temperature 44 °F 53 °F 59 °F (2001)
Min Temperature 31 °F 40 °F 31 °F (2013)
Degree Days  
Heating Degree Days 28    
Moisture  
Dew Point 28 °F    
Average Humidity 66    
Maximum Humidity 80    
Minimum Humidity 47    
Precipitation  
Precipitation 0.00 in 0.07 in - ()
Sea Level Pressure  
Sea Level Pressure 30.04 in    
Wind  
Wind Speed 13 mph ()    
Max Wind Speed 20 mph    
Max Gust Speed -    
Visibility 6.8 miles    
Events      
Averages and records for this station are not official NWS values.
T = Trace of Precipitation, MM = Missing Value Source: Averaged Metar Reports

Daily Weather History Graph

Daily Weather History Graph

Search for Another Location

Airport or City:

Trip Planner

Search our weather history database for the weather conditions in past years. The results will help you decide how hot, cold, wet, or windy it might be!

Date:

Astronomy

Apr. 02, 2013 Rise Set
Actual Time 6:55 AM IST 8:02 PM IST
Civil Twilight 6:20 AM IST 8:38 PM IST
Nautical Twilight 5:37 AM IST 9:21 PM IST
Astronomical Twilight 4:50 AM IST 10:08 PM IST
Moon 2:31 AM IST (4/2) 10:55 AM IST (4/2)
Length of Visible Light 14h 17m
Length of Day
13h 06m
Waning Gibbous, 58% of the Moon is Illuminated
Apr 2
Waning Gibbous
Apr 3
Last Quarter
Apr 10
New
Apr 18
First Quarter
Apr 25
Full

Hourly Weather History & Observations

Time (IST) Temp. Windchill Dew Point Humidity Pressure Visibility Wind Dir Wind Speed Gust Speed Precip Events Conditions
12:00 AM 35.6 °F 25.9 °F 24.8 °F 65% 29.95 in 6.2 mi East 16.1 mph - N/A   Scattered Clouds
12:30 AM 35.6 °F 25.5 °F 24.8 °F 65% 29.95 in 6.2 mi East 17.3 mph - N/A   Scattered Clouds
1:00 AM 34 °F - 25 °F 60% 29.98 in 19 mi East 15.7 mph - -   Scattered Clouds
1:00 AM 33.8 °F 23.5 °F 26.6 °F 75% 29.95 in 6.2 mi East 16.1 mph - N/A   Partly Cloudy
1:30 AM 35.6 °F 26.2 °F 26.6 °F 70% 29.95 in 6.2 mi East 15.0 mph - N/A   Partly Cloudy
2:00 AM 35.6 °F 26.6 °F 26.6 °F 70% 29.95 in 6.2 mi East 13.8 mph - N/A   Mostly Cloudy
2:30 AM 35.6 °F 26.2 °F 26.6 °F 70% 29.98 in 6.2 mi East 15.0 mph - N/A   Mostly Cloudy
3:00 AM 35.6 °F 26.2 °F 26.6 °F 70% 29.95 in 6.2 mi East 15.0 mph - N/A   Mostly Cloudy
3:30 AM 35.6 °F 26.6 °F 26.6 °F 70% 29.98 in 6.2 mi East 13.8 mph - N/A   Mostly Cloudy
4:00 AM 35.6 °F 27.1 °F 26.6 °F 70% 29.98 in 6.2 mi East 12.7 mph - N/A   Mostly Cloudy
4:30 AM 35.6 °F 28.0 °F 26.6 °F 70% 29.98 in 6.2 mi East 10.4 mph - N/A   Mostly Cloudy
5:00 AM 33.8 °F 25.8 °F 26.6 °F 75% 29.98 in 6.2 mi East 10.4 mph - N/A   Mostly Cloudy
5:30 AM 33.8 °F 25.3 °F 26.6 °F 75% 29.98 in 6.2 mi East 11.5 mph - N/A   Scattered Clouds
6:00 AM 33.8 °F 25.8 °F 26.6 °F 75% 29.98 in 6.2 mi East 10.4 mph - N/A   Mostly Cloudy
6:30 AM 33.8 °F 25.8 °F 26.6 °F 75% 29.98 in 6.2 mi East 10.4 mph - N/A   Scattered Clouds
7:00 AM 32 °F - 26 °F 70% 30.02 in 19 mi East 8.9 mph - -   Scattered Clouds
7:00 AM 32.0 °F 24.2 °F 26.6 °F 80% 29.98 in 6.2 mi East 9.2 mph - N/A   Partly Cloudy
7:30 AM 32.0 °F 23.6 °F 26.6 °F 80% 30.01 in 6.2 mi East 10.4 mph - N/A   Partly Cloudy
8:00 AM 33.8 °F 26.4 °F 26.6 °F 75% 30.01 in 6.2 mi East 9.2 mph - N/A   Partly Cloudy
8:30 AM 35.6 °F 27.5 °F 26.6 °F 70% 30.01 in 6.2 mi East 11.5 mph - N/A   Partly Cloudy
9:00 AM 37.4 °F 29.3 °F 26.6 °F 65% 30.04 in 6.2 mi East 12.7 mph - N/A   Partly Cloudy
9:30 AM 37.4 °F 28.2 °F 26.6 °F 65% 30.04 in 6.2 mi East 16.1 mph - N/A   Partly Cloudy
10:00 AM 39.2 °F 30.5 °F 24.8 °F 56% 30.04 in 6.2 mi East 16.1 mph - N/A   Partly Cloudy
10:30 AM 39.2 °F 31.6 °F 24.8 °F 56% 30.04 in 6.2 mi East 12.7 mph - N/A   Partly Cloudy
11:00 AM 39.2 °F 31.6 °F 26.6 °F 61% 30.06 in 6.2 mi East 12.7 mph - N/A   Partly Cloudy
11:30 AM 41.0 °F 32.8 °F 26.6 °F 57% 30.06 in 6.2 mi East 16.1 mph - N/A   Scattered Clouds
12:00 PM 42.8 °F 35.4 °F 28.4 °F 57% 30.06 in 6.2 mi East 15.0 mph - N/A   Mostly Cloudy
12:30 PM 41.0 °F 32.8 °F 28.4 °F 61% 30.06 in 6.2 mi East 16.1 mph - N/A   Mostly Cloudy
1:00 PM 42 °F - 29 °F 47% 30.09 in 37 mi East 17.9 mph - -   Mostly Cloudy
1:00 PM 41.0 °F 32.8 °F 30.2 °F 65% 30.06 in 6.2 mi East 16.1 mph - N/A   Mostly Cloudy
1:30 PM 41.0 °F 33.1 °F 30.2 °F 65% 30.06 in 6.2 mi East 15.0 mph - N/A   Mostly Cloudy
2:00 PM 41.0 °F 32.5 °F 32.0 °F 70% 30.06 in 6.2 mi East 17.3 mph - N/A   Mostly Cloudy
2:30 PM 42.8 °F 35.4 °F 32.0 °F 66% 30.06 in 6.2 mi East 15.0 mph - N/A   Mostly Cloudy
3:00 PM 42.8 °F 35.4 °F 32.0 °F 66% 30.09 in 6.2 mi East 15.0 mph - N/A   Mostly Cloudy
3:30 PM 42.8 °F 35.1 °F 32.0 °F 66% 30.06 in 6.2 mi East 16.1 mph - N/A   Mostly Cloudy
4:00 PM 42.8 °F 34.5 °F 32.0 °F 66% 30.06 in 6.2 mi East 18.4 mph - N/A   Mostly Cloudy
4:30 PM 41.0 °F 32.2 °F 30.2 °F 65% 30.06 in 6.2 mi East 18.4 mph - N/A   Mostly Cloudy
5:00 PM 41.0 °F 32.2 °F 28.4 °F 61% 30.06 in 6.2 mi East 18.4 mph - N/A   Scattered Clouds
5:30 PM 42.8 °F 34.3 °F 28.4 °F 57% 30.09 in 6.2 mi East 19.6 mph - N/A   Scattered Clouds
6:00 PM 41.0 °F 32.5 °F 26.6 °F 57% 30.09 in 6.2 mi ENE 17.3 mph - N/A   Scattered Clouds
6:30 PM 39.2 °F 30.8 °F 28.4 °F 65% 30.09 in 6.2 mi ENE 15.0 mph - N/A   Scattered Clouds
7:00 PM 40 °F - 27 °F 49% 30.12 in 37 mi East 15.7 mph - -   Partly Cloudy
7:00 PM 41.0 °F 33.1 °F 26.6 °F 57% 30.09 in 6.2 mi East 15.0 mph - N/A   Scattered Clouds
7:30 PM 39.2 °F 30.8 °F 26.6 °F 61% 30.09 in 6.2 mi East 15.0 mph - N/A   Partly Cloudy
8:00 PM 39.2 °F 31.2 °F 26.6 °F 61% 30.09 in 6.2 mi East 13.8 mph - N/A   Partly Cloudy
8:30 PM 37.4 °F 29.8 °F 28.4 °F 70% 30.12 in 6.2 mi East 11.5 mph - N/A   Partly Cloudy
9:00 PM 37.4 °F 28.5 °F 28.4 °F 70% 30.12 in 6.2 mi East 15.0 mph - N/A   Partly Cloudy
9:30 PM 37.4 °F 28.9 °F 28.4 °F 70% 30.12 in 6.2 mi East 13.8 mph - N/A   Partly Cloudy
10:00 PM 37.4 °F 28.9 °F 30.2 °F 75% 30.12 in - East 13.8 mph - N/A   Clear
10:30 PM 39.2 °F 31.2 °F 28.4 °F 65% 30.12 in - East 13.8 mph - N/A   Clear
11:00 PM 37.4 °F 28.9 °F 28.4 °F 70% 30.12 in - East 13.8 mph - N/A   Clear
11:30 PM 37.4 °F 29.8 °F 28.4 °F 70% 30.12 in - East 11.5 mph - N/A   Clear